Погода в Сермане

Россия / Пензенская область     53°33′44″N   46°21′52″E
темп.,
°C
ветер,
м/с
пор.,
м/с
влажн.,
%
обл.,
%
осадки,
мм/ч
давл.,
гПа
погр.,
м
23 октября, сб
сб2300:00+9зюз613775 0.0 1008487
03:00+8юз512835 0.0 1009384
06:00+6юз512869 0.0 1009247
09:00+9зюз613675 0.0 10101208
12:00+11зюз814465 0.0 10111708
15:00+11зюз61243100 0.0 10111502
18:00+9юз6105795 0.0 1012506
21:00+7з3677100 0.3 1012401
24 октября, вс
вс2400:00+6зюз4783100 0.9 1012581
03:00+5зюз498935 1.2 1011529
06:00+3зюз49945 0.0 1012292
09:00+5з6108033 0.0 1013676
12:00+6з7964100 0.0 10141200
15:00+6зюз4866100 0.0 10151284
18:00+6юз4866100 0.0 1015799
21:00+3зюз61191100 0.2 1015673
25 октября, пн
пн2500:00+3з4983100 0.1 1014749
03:00+2з4998100 0.3 1015579
06:00+1сз61195100 0.5 1017642
09:00+1ссз8128386 0.6 1020795
12:00+1ссз81072100 0.1 10221053
15:00+2ссз69555 0.1 10241113
18:00−1ссз49705 0.0 1028268
21:00−2сз357480 0.0 102995
26 октября, вт
вт2600:00−1з357296 0.0 1030123
03:00−3зюз49795 0.0 1030207
06:00−3юз512745 0.0 1029304
09:00+1зюз7145953 0.0 1028519
12:00+4зюз8124919 0.0 1026759
15:00+5зюз713527 0.0 1025766
18:00+2зюз7156187 0.0 1026492
21:00+1зюз6156533 0.0 1025428
27 октября, ср
ср2700:00+1зюз6146685 0.0 1025378
03:00+1зюз6146461 0.0 1024360
06:000юз613648 0.0 1024336
09:00+3зюз71552100 0.0 1024468
12:00+7зюз8143740 0.0 1022699
15:00+7юз7143645 0.0 1020781
18:00+4юз716415 0.0 1020547
21:00+3юз716425 0.0 1019526